Year,Month,Day,Hour,Minute,Value (Times are PST for temperature in C)
2018,10,20,00,00,7.30
2018,10,20,00,01,7.40
2018,10,20,00,02,7.40
2018,10,20,00,03,7.40
2018,10,20,00,04,7.40
2018,10,20,00,05,7.40
2018,10,20,00,06,7.40
2018,10,20,00,07,7.40
2018,10,20,00,08,7.40
2018,10,20,00,09,7.50
2018,10,20,00,10,7.50
2018,10,20,00,11,7.50
2018,10,20,00,12,7.60
2018,10,20,00,13,7.60
2018,10,20,00,14,7.60
2018,10,20,00,15,7.60
2018,10,20,00,16,7.60
2018,10,20,00,17,7.60
2018,10,20,00,18,7.60
2018,10,20,00,19,7.60
2018,10,20,00,20,7.60
2018,10,20,00,21,7.60
2018,10,20,00,22,7.50
2018,10,20,00,23,7.40
2018,10,20,00,24,7.40
2018,10,20,00,25,7.40
2018,10,20,00,26,7.40
2018,10,20,00,27,7.40
2018,10,20,00,28,7.30
2018,10,20,00,29,7.30
2018,10,20,00,30,7.30
2018,10,20,00,31,7.30
2018,10,20,00,32,7.20
2018,10,20,00,33,7.30
2018,10,20,00,34,7.30
2018,10,20,00,35,7.30
2018,10,20,00,36,7.30
2018,10,20,00,37,7.30
2018,10,20,00,38,7.30
2018,10,20,00,39,7.30
2018,10,20,00,40,7.40
2018,10,20,00,41,7.40
2018,10,20,00,42,7.40
2018,10,20,00,43,7.40
2018,10,20,00,44,7.40
2018,10,20,00,45,7.40
2018,10,20,00,46,7.40
2018,10,20,00,47,7.40
2018,10,20,00,48,7.40
2018,10,20,00,49,7.40
2018,10,20,00,50,7.40
2018,10,20,00,51,7.50
2018,10,20,00,52,7.50
2018,10,20,00,53,7.60
2018,10,20,00,54,7.60
2018,10,20,00,55,7.60
2018,10,20,00,56,7.60
2018,10,20,00,57,7.60
2018,10,20,00,58,7.60
2018,10,20,00,59,7.60
2018,10,20,01,00,7.60
2018,10,20,01,01,7.60
2018,10,20,01,02,7.60
2018,10,20,01,03,7.60
2018,10,20,01,04,7.60
2018,10,20,01,05,7.70
2018,10,20,01,06,7.70
2018,10,20,01,07,7.70
2018,10,20,01,08,7.60
2018,10,20,01,09,7.60
2018,10,20,01,10,7.60
2018,10,20,01,11,7.60
2018,10,20,01,12,7.60
2018,10,20,01,13,7.60
2018,10,20,01,14,7.60
2018,10,20,01,15,7.60
2018,10,20,01,16,7.60
2018,10,20,01,17,7.60
2018,10,20,01,18,7.60
2018,10,20,01,19,7.50
2018,10,20,01,20,7.50
2018,10,20,01,21,7.50
2018,10,20,01,22,7.40
2018,10,20,01,23,7.40
2018,10,20,01,24,7.40
2018,10,20,01,25,7.40
2018,10,20,01,26,7.40
2018,10,20,01,27,7.40
2018,10,20,01,28,7.40
2018,10,20,01,29,7.30
2018,10,20,01,30,7.30
2018,10,20,01,31,7.30
2018,10,20,01,32,7.30
2018,10,20,01,33,7.30
2018,10,20,01,34,7.40
2018,10,20,01,35,7.40
2018,10,20,01,36,7.40
2018,10,20,01,37,7.40
2018,10,20,01,38,7.40
2018,10,20,01,39,7.40
2018,10,20,01,40,7.50
2018,10,20,01,41,7.60
2018,10,20,01,42,7.60
2018,10,20,01,43,7.60
2018,10,20,01,44,7.60
2018,10,20,01,45,7.60
2018,10,20,01,46,7.60
2018,10,20,01,47,7.60
2018,10,20,01,48,7.60
2018,10,20,01,49,7.60
2018,10,20,01,50,7.60
2018,10,20,01,51,7.60
2018,10,20,01,52,7.60
2018,10,20,01,53,7.60
2018,10,20,01,54,7.60
2018,10,20,01,55,7.60
2018,10,20,01,56,7.60
2018,10,20,01,57,7.70
2018,10,20,01,58,7.70
2018,10,20,01,59,7.70
2018,10,20,02,00,7.70
2018,10,20,02,01,7.70
2018,10,20,02,02,7.70
2018,10,20,02,03,7.70
2018,10,20,02,04,7.70
2018,10,20,02,05,7.70
2018,10,20,02,06,7.80
2018,10,20,02,07,7.80
2018,10,20,02,08,7.80
2018,10,20,02,09,7.80
2018,10,20,02,10,7.80
2018,10,20,02,11,7.90
2018,10,20,02,12,7.90
2018,10,20,02,13,8.00
2018,10,20,02,14,8.10
2018,10,20,02,15,8.10
2018,10,20,02,16,8.10
2018,10,20,02,17,8.10
2018,10,20,02,18,8.10
2018,10,20,02,19,8.10
2018,10,20,02,20,8.10
2018,10,20,02,21,8.00
2018,10,20,02,22,8.00
2018,10,20,02,23,8.00
2018,10,20,02,24,8.00
2018,10,20,02,25,7.90
2018,10,20,02,26,7.90
2018,10,20,02,27,7.90
2018,10,20,02,28,7.90
2018,10,20,02,29,7.90
2018,10,20,02,30,7.80
2018,10,20,02,31,7.80
2018,10,20,02,32,7.80
2018,10,20,02,33,7.70
2018,10,20,02,34,7.70
2018,10,20,02,35,7.60
2018,10,20,02,36,7.60
2018,10,20,02,37,7.50
2018,10,20,02,38,7.50
2018,10,20,02,39,7.50
2018,10,20,02,40,7.50
2018,10,20,02,41,7.50
2018,10,20,02,42,7.50
2018,10,20,02,43,7.40
2018,10,20,02,44,7.40
2018,10,20,02,45,7.40
2018,10,20,02,46,7.30
2018,10,20,02,47,7.30
2018,10,20,02,48,7.30
2018,10,20,02,49,7.30
2018,10,20,02,50,7.30
2018,10,20,02,51,7.20
2018,10,20,02,52,7.20
2018,10,20,02,53,7.20
2018,10,20,02,54,7.20
2018,10,20,02,55,7.20
2018,10,20,02,56,7.20
2018,10,20,02,57,7.30
2018,10,20,02,58,7.30
2018,10,20,02,59,7.30
2018,10,20,03,00,7.30
2018,10,20,03,01,7.30
2018,10,20,03,02,7.20
2018,10,20,03,03,7.20
2018,10,20,03,04,7.20
2018,10,20,03,05,7.20
2018,10,20,03,06,7.20
2018,10,20,03,07,7.20
2018,10,20,03,08,7.20
2018,10,20,03,09,7.20
2018,10,20,03,10,7.20
2018,10,20,03,11,7.20
2018,10,20,03,12,7.20
2018,10,20,03,13,7.20
2018,10,20,03,14,7.20
2018,10,20,03,15,7.20
2018,10,20,03,16,7.20
2018,10,20,03,17,7.10
2018,10,20,03,18,7.10
2018,10,20,03,19,7.10
2018,10,20,03,20,7.10
2018,10,20,03,21,7.10
2018,10,20,03,22,7.10
2018,10,20,03,23,7.10
2018,10,20,03,24,7.10
2018,10,20,03,25,7.00
2018,10,20,03,26,7.00
2018,10,20,03,27,7.00
2018,10,20,03,28,7.00
2018,10,20,03,29,7.00
2018,10,20,03,30,7.00
2018,10,20,03,31,7.00
2018,10,20,03,32,7.00
2018,10,20,03,33,7.00
2018,10,20,03,34,7.00
2018,10,20,03,35,7.00
2018,10,20,03,36,6.90
2018,10,20,03,37,6.90
2018,10,20,03,38,6.90
2018,10,20,03,39,7.00
2018,10,20,03,40,7.00
2018,10,20,03,41,7.00
2018,10,20,03,42,7.10
2018,10,20,03,43,7.10
2018,10,20,03,44,7.10
2018,10,20,03,45,7.20
2018,10,20,03,46,7.20
2018,10,20,03,47,7.20
2018,10,20,03,48,7.20
2018,10,20,03,49,7.20
2018,10,20,03,50,7.20
2018,10,20,03,51,7.20
2018,10,20,03,52,7.20
2018,10,20,03,53,7.10
2018,10,20,03,54,7.10
2018,10,20,03,55,7.10
2018,10,20,03,56,7.10
2018,10,20,03,57,7.10
2018,10,20,03,58,7.10
2018,10,20,03,59,7.10
2018,10,20,04,00,7.10
2018,10,20,04,01,7.10
2018,10,20,04,02,7.10
2018,10,20,04,03,7.10
2018,10,20,08,17,8.80
2018,10,20,08,18,8.80
2018,10,20,08,19,8.80
2018,10,20,08,20,8.80
2018,10,20,08,21,8.80
2018,10,20,08,22,8.80
2018,10,20,08,23,8.90
2018,10,20,08,24,8.90
2018,10,20,08,25,8.90
2018,10,20,08,26,8.90
2018,10,20,08,27,9.00
2018,10,20,08,28,9.00
2018,10,20,08,29,9.00
2018,10,20,08,30,9.00
2018,10,20,08,31,9.00
2018,10,20,08,32,9.00
2018,10,20,08,33,9.00
2018,10,20,08,34,9.00
2018,10,20,08,35,9.10
2018,10,20,08,36,9.10
2018,10,20,08,37,9.10
2018,10,20,08,38,9.10
2018,10,20,08,39,9.10
2018,10,20,08,40,9.10
2018,10,20,08,41,9.10
2018,10,20,08,42,9.00
2018,10,20,08,43,9.00
2018,10,20,08,44,9.00
2018,10,20,08,45,8.90
2018,10,20,08,46,8.90
2018,10,20,08,47,8.90
2018,10,20,08,48,8.90
2018,10,20,08,49,8.90
2018,10,20,08,50,8.90
2018,10,20,08,51,8.90
2018,10,20,08,52,8.90
2018,10,20,08,53,9.00
2018,10,20,08,54,9.00
2018,10,20,08,55,9.00
2018,10,20,08,56,9.10
2018,10,20,08,57,9.10
2018,10,20,08,58,9.10
2018,10,20,08,59,9.10
2018,10,20,09,00,9.10
2018,10,20,09,01,9.20
2018,10,20,09,02,9.20
2018,10,20,09,03,9.20
2018,10,20,09,04,9.20
2018,10,20,09,05,9.20
2018,10,20,09,06,9.20
2018,10,20,09,07,9.20
2018,10,20,09,08,9.20
2018,10,20,09,09,9.20
2018,10,20,09,10,9.20
2018,10,20,09,11,9.20
2018,10,20,09,12,9.20
2018,10,20,09,13,9.20
2018,10,20,09,14,9.30
2018,10,20,09,15,9.30
2018,10,20,09,16,9.30
2018,10,20,09,17,9.30
2018,10,20,09,18,9.30
2018,10,20,09,19,9.40
2018,10,20,09,20,9.40
2018,10,20,09,21,9.50
2018,10,20,09,22,9.50
2018,10,20,09,23,9.60
2018,10,20,09,24,9.70
2018,10,20,09,25,9.70
2018,10,20,09,26,9.80
2018,10,20,09,27,9.80
2018,10,20,09,28,9.80
2018,10,20,09,29,9.80
2018,10,20,09,30,9.90
2018,10,20,09,31,9.90
2018,10,20,09,32,10.00
2018,10,20,09,33,10.00
2018,10,20,09,34,10.10
2018,10,20,09,35,10.10
2018,10,20,09,36,10.20
2018,10,20,09,37,10.20
2018,10,20,09,38,10.30
2018,10,20,09,39,10.40
2018,10,20,09,40,10.50
2018,10,20,09,41,10.50
2018,10,20,09,42,10.60
2018,10,20,09,43,10.60
2018,10,20,09,44,10.60
2018,10,20,09,45,10.60
2018,10,20,09,46,10.50
2018,10,20,09,47,10.50
2018,10,20,09,48,10.50
2018,10,20,09,49,10.50
2018,10,20,09,50,10.50
2018,10,20,09,51,10.50
2018,10,20,09,52,10.50
2018,10,20,09,53,10.50
2018,10,20,09,54,10.50
2018,10,20,09,55,10.60
2018,10,20,09,56,10.60
2018,10,20,09,57,10.70
2018,10,20,09,58,10.70
2018,10,20,09,59,10.80
2018,10,20,10,00,10.80
2018,10,20,10,01,10.90
2018,10,20,10,02,10.90
2018,10,20,10,03,10.90
2018,10,20,10,04,10.80
2018,10,20,10,05,10.70
2018,10,20,10,06,10.70
2018,10,20,10,07,10.60
2018,10,20,10,08,10.60
2018,10,20,10,09,10.60
2018,10,20,10,10,10.70
2018,10,20,10,11,10.70
2018,10,20,10,12,10.70
2018,10,20,10,13,10.70
2018,10,20,10,14,10.70
2018,10,20,10,15,10.70
2018,10,20,10,16,10.70
2018,10,20,10,17,10.70
2018,10,20,10,18,10.80
2018,10,20,10,19,10.80
2018,10,20,10,20,10.90
2018,10,20,10,21,10.90
2018,10,20,10,22,11.00
2018,10,20,10,23,11.00
2018,10,20,10,24,11.10
2018,10,20,10,25,11.10
2018,10,20,10,26,11.20
2018,10,20,10,27,11.30
2018,10,20,10,28,11.20
2018,10,20,10,29,11.20
2018,10,20,10,30,11.10
2018,10,20,10,31,11.10
2018,10,20,10,32,11.00
2018,10,20,10,33,10.90
2018,10,20,10,34,11.00
2018,10,20,10,35,11.10
2018,10,20,10,36,11.20
2018,10,20,10,37,11.20
2018,10,20,10,38,11.30
2018,10,20,10,39,11.30
2018,10,20,10,40,11.30
2018,10,20,10,41,11.40
2018,10,20,10,42,11.40
2018,10,20,10,43,11.50
2018,10,20,10,44,11.60
2018,10,20,10,45,11.70
2018,10,20,10,46,11.80
2018,10,20,10,47,11.90
2018,10,20,10,48,11.90
2018,10,20,10,49,11.90
2018,10,20,10,50,11.80
2018,10,20,10,51,11.80
2018,10,20,10,52,11.80
2018,10,20,10,53,11.90
2018,10,20,10,54,12.00
2018,10,20,10,55,12.00
2018,10,20,10,56,12.10
2018,10,20,10,57,12.10
2018,10,20,10,58,12.20
2018,10,20,10,59,12.20
2018,10,20,11,00,12.20
2018,10,20,11,01,12.20
2018,10,20,11,02,12.20
2018,10,20,11,03,12.20
2018,10,20,11,04,12.20
2018,10,20,11,05,12.30
2018,10,20,11,06,12.30
2018,10,20,11,07,12.40
2018,10,20,11,08,12.50
2018,10,20,11,09,12.60
2018,10,20,11,10,12.60
2018,10,20,11,11,12.70
2018,10,20,11,12,12.70
2018,10,20,11,13,12.80
2018,10,20,11,14,12.90
2018,10,20,11,15,12.90
2018,10,20,11,16,13.00
2018,10,20,11,17,13.10
2018,10,20,11,18,13.10
2018,10,20,11,19,13.10
2018,10,20,11,20,13.00
2018,10,20,11,21,13.00
2018,10,20,11,22,13.10
2018,10,20,11,23,13.10
2018,10,20,11,24,13.10
2018,10,20,11,25,13.20
2018,10,20,11,26,13.20
2018,10,20,11,27,13.20
2018,10,20,11,28,13.30
2018,10,20,11,29,13.30
2018,10,20,11,30,13.40
2018,10,20,11,31,13.50
2018,10,20,11,32,13.60
2018,10,20,11,33,13.60
2018,10,20,11,34,13.70
2018,10,20,11,35,13.80
2018,10,20,11,36,13.90
2018,10,20,11,37,13.90
2018,10,20,11,38,14.00
2018,10,20,11,39,14.00
2018,10,20,11,40,14.00
2018,10,20,11,41,14.00
2018,10,20,11,42,14.10
2018,10,20,11,43,14.10
2018,10,20,11,44,14.00
2018,10,20,11,45,13.90
2018,10,20,11,46,13.90
2018,10,20,11,47,13.90
2018,10,20,11,48,13.80
2018,10,20,11,49,13.80
2018,10,20,11,50,13.80
2018,10,20,11,51,13.90
2018,10,20,11,52,13.90
2018,10,20,11,53,14.00
2018,10,20,11,54,14.00
2018,10,20,11,55,14.00
2018,10,20,11,56,14.10
2018,10,20,11,57,14.10
2018,10,20,11,58,14.10
2018,10,20,11,59,14.10
2018,10,20,12,00,14.10
2018,10,20,12,01,14.10
2018,10,20,12,02,14.10
2018,10,20,12,03,14.20
2018,10,20,12,04,14.20
2018,10,20,12,05,14.20
2018,10,20,12,06,14.30
2018,10,20,12,07,14.30
2018,10,20,12,08,14.30
2018,10,20,12,09,14.30
2018,10,20,12,10,14.40
2018,10,20,12,11,14.40
2018,10,20,12,12,14.40
2018,10,20,12,13,14.40
2018,10,20,12,14,14.50
2018,10,20,12,15,14.50
2018,10,20,12,16,14.50
2018,10,20,12,17,14.50
2018,10,20,12,18,14.50
2018,10,20,12,19,14.60
2018,10,20,12,20,14.60
2018,10,20,12,21,14.60
2018,10,20,12,22,14.60
2018,10,20,12,23,14.60
2018,10,20,12,24,14.60
2018,10,20,12,25,14.50
2018,10,20,12,26,14.50
2018,10,20,12,27,14.50
2018,10,20,12,28,14.60
2018,10,20,12,29,14.70
2018,10,20,12,30,14.70
2018,10,20,12,31,14.80
2018,10,20,12,32,14.80
2018,10,20,12,33,14.80
2018,10,20,12,34,14.70
2018,10,20,12,35,14.80
2018,10,20,12,36,14.80
2018,10,20,12,37,14.80
2018,10,20,12,38,14.90
2018,10,20,12,39,14.90
2018,10,20,12,40,15.00
2018,10,20,12,41,14.90
2018,10,20,12,42,15.00
2018,10,20,12,43,15.00
2018,10,20,12,44,15.00
2018,10,20,12,45,15.00
2018,10,20,12,46,15.00
2018,10,20,12,47,15.00
2018,10,20,12,48,15.00
2018,10,20,12,49,15.00
2018,10,20,12,50,15.00
2018,10,20,12,51,15.00
2018,10,20,12,52,15.00
2018,10,20,12,53,15.00
2018,10,20,12,54,15.00
2018,10,20,12,55,15.00
2018,10,20,12,56,15.00
2018,10,20,12,57,15.00
2018,10,20,12,58,15.00
2018,10,20,12,59,14.90
2018,10,20,13,00,14.90
2018,10,20,13,01,15.00
2018,10,20,13,02,15.00
2018,10,20,13,03,15.00
2018,10,20,13,04,15.00
2018,10,20,13,05,15.10
2018,10,20,13,06,15.20
2018,10,20,13,07,15.30
2018,10,20,13,08,15.30
2018,10,20,13,09,15.40
2018,10,20,13,10,15.40
2018,10,20,13,11,15.40
2018,10,20,13,12,15.40
2018,10,20,13,13,15.40
2018,10,20,13,14,15.40
2018,10,20,13,15,15.40
2018,10,20,13,16,15.40
2018,10,20,13,17,15.30
2018,10,20,13,18,15.30
2018,10,20,13,19,15.30
2018,10,20,13,20,15.30
2018,10,20,13,21,15.30
2018,10,20,13,22,15.30
2018,10,20,13,23,15.30
2018,10,20,13,24,15.30
2018,10,20,13,25,15.30
2018,10,20,13,26,15.30
2018,10,20,13,27,15.30
2018,10,20,13,28,15.30
2018,10,20,13,29,15.30
2018,10,20,13,30,15.30
2018,10,20,13,31,15.30
2018,10,20,13,32,15.30
2018,10,20,13,33,15.30
2018,10,20,13,34,15.30
2018,10,20,13,35,15.40
2018,10,20,13,36,15.50
2018,10,20,13,37,15.50
2018,10,20,13,38,15.60
2018,10,20,13,39,15.60
2018,10,20,13,40,15.60
2018,10,20,13,41,15.60
2018,10,20,13,42,15.70
2018,10,20,13,43,15.70
2018,10,20,13,44,15.80
2018,10,20,13,45,15.80
2018,10,20,13,46,15.80
2018,10,20,13,47,15.80
2018,10,20,13,48,15.80
2018,10,20,13,49,15.80
2018,10,20,13,50,15.70
2018,10,20,13,51,15.70
2018,10,20,13,52,15.60
2018,10,20,13,53,15.60
2018,10,20,13,54,15.60
2018,10,20,13,55,15.70
2018,10,20,13,56,15.70
2018,10,20,13,57,15.60
2018,10,20,13,58,15.60
2018,10,20,13,59,15.60
2018,10,20,14,00,15.50
2018,10,20,14,01,15.50
2018,10,20,14,02,15.40
2018,10,20,14,03,15.40
2018,10,20,14,04,15.30
2018,10,20,14,05,15.30
2018,10,20,14,06,15.30
2018,10,20,14,07,15.30
2018,10,20,14,08,15.30
2018,10,20,14,09,15.30
2018,10,20,14,10,15.20
2018,10,20,14,11,15.20
2018,10,20,14,12,15.10
2018,10,20,14,13,15.10
2018,10,20,14,14,15.10
2018,10,20,14,15,15.00
2018,10,20,14,16,15.10
2018,10,20,14,17,15.10
2018,10,20,14,18,15.20
2018,10,20,14,19,15.20
2018,10,20,14,20,15.20
2018,10,20,14,21,15.30
2018,10,20,14,22,15.30
2018,10,20,14,23,15.30
2018,10,20,14,24,15.40
2018,10,20,14,25,15.40
2018,10,20,14,26,15.40
2018,10,20,14,27,15.50
2018,10,20,14,28,15.50
2018,10,20,14,29,15.60
2018,10,20,14,30,15.60
2018,10,20,14,31,15.60
2018,10,20,14,32,15.60
2018,10,20,14,33,15.60
2018,10,20,14,34,15.60
2018,10,20,14,35,15.60
2018,10,20,14,36,15.70
2018,10,20,14,37,15.70
2018,10,20,14,38,15.80
2018,10,20,14,39,15.80
2018,10,20,14,40,15.90
2018,10,20,14,41,15.90
2018,10,20,14,42,15.90
2018,10,20,14,43,15.90
2018,10,20,14,44,15.80
2018,10,20,14,45,15.80
2018,10,20,14,46,15.80
2018,10,20,14,47,15.80
2018,10,20,14,48,15.80
2018,10,20,14,49,15.70
2018,10,20,14,50,15.60
2018,10,20,14,51,15.50
2018,10,20,14,52,15.40
2018,10,20,14,53,15.40
2018,10,20,14,54,15.40
2018,10,20,14,55,15.40
2018,10,20,14,56,15.40
2018,10,20,14,57,15.40
2018,10,20,14,58,15.50
2018,10,20,14,59,15.50
2018,10,20,15,00,15.60
2018,10,20,15,01,15.60
2018,10,20,15,02,15.60
2018,10,20,15,03,15.60
2018,10,20,15,04,15.60
2018,10,20,15,05,15.70
2018,10,20,15,06,15.70
2018,10,20,15,07,15.70
2018,10,20,15,08,15.70
2018,10,20,15,09,15.70
2018,10,20,15,10,15.80
2018,10,20,15,11,15.80
2018,10,20,15,12,15.90
2018,10,20,15,13,16.00
2018,10,20,15,14,16.10
2018,10,20,15,15,16.20
2018,10,20,15,16,16.30
2018,10,20,15,17,16.40
2018,10,20,15,18,16.40
2018,10,20,15,19,16.50
2018,10,20,15,20,16.50
2018,10,20,15,21,16.50
2018,10,20,15,22,16.40
2018,10,20,15,23,16.40
2018,10,20,15,24,16.30
2018,10,20,15,25,16.30
2018,10,20,15,26,16.30
2018,10,20,15,27,16.30
2018,10,20,15,28,16.30
2018,10,20,15,29,16.30
2018,10,20,15,30,16.20
2018,10,20,15,31,16.20
2018,10,20,15,32,16.10
2018,10,20,15,33,16.10
2018,10,20,15,34,16.10
2018,10,20,15,35,16.10
2018,10,20,15,36,16.10
2018,10,20,15,37,16.10
2018,10,20,15,38,16.10
2018,10,20,15,39,16.20
2018,10,20,15,40,16.20
2018,10,20,15,41,16.20
2018,10,20,15,42,16.20
2018,10,20,15,43,16.10
2018,10,20,15,44,16.10
2018,10,20,15,45,16.10
2018,10,20,15,46,16.10
2018,10,20,15,47,16.20
2018,10,20,15,48,16.20
2018,10,20,15,49,16.10
2018,10,20,15,50,16.10
2018,10,20,15,51,16.10
2018,10,20,15,52,16.20
2018,10,20,15,53,16.20
2018,10,20,15,54,16.10
2018,10,20,15,55,16.20
2018,10,20,15,56,16.20
2018,10,20,15,57,16.20
2018,10,20,15,58,16.20
2018,10,20,15,59,16.20
2018,10,20,16,00,16.20
2018,10,20,16,01,16.20
2018,10,20,16,02,16.30
2018,10,20,16,03,16.30
2018,10,20,16,04,16.40
2018,10,20,16,05,16.40
2018,10,20,16,06,16.50
2018,10,20,16,07,16.60
2018,10,20,16,08,16.60
2018,10,20,16,09,16.70
2018,10,20,16,10,16.70
2018,10,20,16,11,16.70
2018,10,20,16,12,16.70
2018,10,20,16,13,16.70
2018,10,20,16,14,16.70
2018,10,20,16,15,16.70
2018,10,20,16,16,16.70
2018,10,20,16,17,16.60
2018,10,20,16,18,16.60
2018,10,20,16,19,16.50
2018,10,20,16,20,16.40
2018,10,20,16,21,16.30
2018,10,20,16,22,16.20
2018,10,20,16,23,16.20
2018,10,20,16,24,16.10
2018,10,20,16,25,16.00
2018,10,20,16,26,15.90
2018,10,20,16,27,15.90
2018,10,20,16,28,15.80
2018,10,20,16,29,15.70
2018,10,20,16,30,15.60
2018,10,20,16,31,15.50
2018,10,20,16,32,15.40
2018,10,20,16,33,15.30
2018,10,20,16,34,15.30
2018,10,20,16,35,15.30
2018,10,20,16,36,15.20
2018,10,20,16,37,15.20
2018,10,20,16,38,15.10
2018,10,20,16,39,15.00
2018,10,20,16,40,15.00
2018,10,20,16,41,15.00
2018,10,20,16,42,15.00
2018,10,20,16,43,15.00
2018,10,20,16,44,15.00
2018,10,20,16,45,15.00
2018,10,20,16,46,15.00
2018,10,20,16,47,15.00
2018,10,20,16,48,15.00
2018,10,20,16,49,15.00
2018,10,20,16,50,15.00
2018,10,20,16,51,15.00
2018,10,20,16,52,15.00
2018,10,20,16,53,15.00
2018,10,20,16,54,15.00
2018,10,20,16,55,15.00
2018,10,20,16,56,15.00
2018,10,20,16,57,15.00
2018,10,20,16,58,15.00
2018,10,20,16,59,15.00
2018,10,20,17,00,15.00
2018,10,20,17,01,15.00
2018,10,20,17,02,15.00
2018,10,20,17,03,15.00
2018,10,20,17,04,15.00
2018,10,20,17,05,15.00
2018,10,20,17,06,15.00
2018,10,20,17,07,14.90
2018,10,20,17,08,14.90
2018,10,20,17,09,14.80
2018,10,20,17,10,14.80
2018,10,20,17,11,14.80
2018,10,20,17,12,14.70
2018,10,20,17,13,14.70
2018,10,20,17,14,14.60
2018,10,20,17,15,14.60
2018,10,20,17,16,14.50
2018,10,20,17,17,14.40
2018,10,20,17,18,14.40
2018,10,20,17,19,14.40
2018,10,20,17,20,14.30
2018,10,20,17,21,14.30
2018,10,20,17,22,14.30
2018,10,20,17,23,14.30
2018,10,20,17,24,14.30
2018,10,20,17,25,14.20
2018,10,20,17,26,14.20
2018,10,20,17,27,14.20
2018,10,20,17,28,14.10
2018,10,20,17,29,14.10
2018,10,20,17,30,14.10
2018,10,20,17,31,14.10
2018,10,20,17,32,14.10
2018,10,20,17,33,14.00
2018,10,20,17,34,14.00
2018,10,20,17,35,13.90
2018,10,20,17,36,13.90
2018,10,20,17,37,13.90
2018,10,20,17,38,13.90
2018,10,20,17,39,13.80
2018,10,20,17,40,13.80
2018,10,20,17,41,13.80
2018,10,20,17,42,13.70
2018,10,20,17,43,13.70
2018,10,20,17,44,13.70
2018,10,20,17,45,13.60
2018,10,20,17,46,13.60
2018,10,20,17,47,13.50
2018,10,20,17,48,13.50
2018,10,20,17,49,13.40
2018,10,20,17,50,13.40
2018,10,20,17,51,13.30
2018,10,20,17,52,13.30
2018,10,20,17,53,13.20
2018,10,20,17,54,13.20
2018,10,20,17,55,13.10
2018,10,20,17,56,13.10
2018,10,20,17,57,13.00
2018,10,20,17,58,13.00
2018,10,20,17,59,12.90
2018,10,20,18,00,12.90
2018,10,20,18,01,12.80
2018,10,20,18,02,12.80
2018,10,20,18,03,12.80
2018,10,20,18,04,12.70
2018,10,20,18,05,12.70
2018,10,20,18,06,12.60
2018,10,20,18,07,12.60
2018,10,20,18,08,12.50
2018,10,20,18,09,12.50
2018,10,20,18,10,12.50
2018,10,20,18,11,12.40
2018,10,20,18,12,12.40
2018,10,20,18,13,12.30
2018,10,20,18,14,12.30
2018,10,20,18,15,12.30
2018,10,20,18,16,12.20
2018,10,20,18,17,12.20
2018,10,20,18,18,12.20
2018,10,20,18,19,12.10
2018,10,20,18,20,12.10
2018,10,20,18,21,12.10
2018,10,20,18,22,12.00
2018,10,20,18,23,12.00
2018,10,20,18,24,11.90
2018,10,20,18,25,11.90
2018,10,20,18,26,11.90
2018,10,20,18,27,11.90
2018,10,20,18,28,11.80
2018,10,20,18,29,11.80
2018,10,20,18,30,11.80
2018,10,20,18,31,11.70
2018,10,20,18,32,11.70
2018,10,20,18,33,11.70
2018,10,20,18,34,11.70
2018,10,20,18,35,11.60
2018,10,20,18,36,11.60
2018,10,20,18,37,11.60
2018,10,20,18,38,11.50
2018,10,20,18,39,11.50
2018,10,20,18,40,11.50
2018,10,20,18,41,11.40
2018,10,20,18,42,11.40
2018,10,20,18,43,11.40
2018,10,20,18,44,11.30
2018,10,20,18,45,11.30
2018,10,20,18,46,11.20
2018,10,20,18,47,11.20
2018,10,20,18,48,11.20
2018,10,20,18,49,11.20
2018,10,20,18,50,11.10
2018,10,20,18,51,11.10
2018,10,20,18,52,11.10
2018,10,20,18,53,11.00
2018,10,20,18,54,11.00
2018,10,20,18,55,10.90
2018,10,20,18,56,10.90
2018,10,20,18,57,10.90
2018,10,20,18,58,10.90
2018,10,20,18,59,10.90
2018,10,20,19,00,10.90
2018,10,20,19,01,10.80
2018,10,20,19,02,10.80
2018,10,20,19,03,10.80
2018,10,20,19,04,10.80
2018,10,20,19,05,10.80
2018,10,20,19,06,10.80
2018,10,20,19,07,10.80
2018,10,20,19,08,10.70
2018,10,20,19,09,10.70
2018,10,20,19,10,10.70
2018,10,20,19,11,10.70
2018,10,20,19,12,10.70
2018,10,20,19,13,10.70
2018,10,20,19,14,10.60
2018,10,20,19,15,10.60
2018,10,20,19,16,10.60
2018,10,20,19,17,10.50
2018,10,20,19,18,10.50
2018,10,20,19,19,10.50
2018,10,20,19,20,10.50
2018,10,20,19,21,10.40
2018,10,20,19,22,10.40
2018,10,20,19,23,10.40
2018,10,20,19,24,10.40
2018,10,20,19,25,10.40
2018,10,20,19,26,10.40
2018,10,20,19,27,10.40
2018,10,20,19,28,10.30
2018,10,20,19,29,10.30
2018,10,20,19,30,10.30
2018,10,20,19,31,10.30
2018,10,20,19,32,10.30
2018,10,20,19,33,10.30
2018,10,20,19,34,10.20
2018,10,20,19,35,10.20
2018,10,20,19,36,10.20
2018,10,20,19,37,10.20
2018,10,20,19,38,10.10
2018,10,20,19,39,10.10
2018,10,20,19,40,10.10
2018,10,20,19,41,10.10
2018,10,20,19,42,10.10
2018,10,20,19,43,10.10
2018,10,20,19,44,10.00
2018,10,20,19,45,10.00
2018,10,20,19,46,10.00
2018,10,20,19,47,9.90
2018,10,20,19,48,9.90
2018,10,20,19,49,9.90
2018,10,20,19,50,9.90
2018,10,20,19,51,9.90
2018,10,20,19,52,9.90
2018,10,20,19,53,9.90
2018,10,20,19,54,9.90
2018,10,20,19,55,9.90
2018,10,20,19,56,9.80
2018,10,20,19,57,9.80
2018,10,20,19,58,9.80
2018,10,20,19,59,9.80
2018,10,20,20,00,9.80
2018,10,20,20,01,9.80
2018,10,20,20,02,9.80
2018,10,20,20,03,9.70
2018,10,20,20,04,9.70
2018,10,20,20,05,9.70
2018,10,20,20,06,9.70
2018,10,20,20,07,9.70
2018,10,20,20,08,9.70
2018,10,20,20,09,9.70
2018,10,20,20,10,9.70
2018,10,20,20,11,9.60
2018,10,20,20,12,9.60
2018,10,20,20,13,9.60
2018,10,20,20,14,9.60
2018,10,20,20,15,9.60
2018,10,20,20,16,9.60
2018,10,20,20,17,9.60
2018,10,20,20,18,9.60
2018,10,20,20,19,9.50
2018,10,20,20,20,9.50
2018,10,20,20,21,9.50
2018,10,20,20,22,9.50
2018,10,20,20,23,9.50
2018,10,20,20,24,9.40
2018,10,20,20,25,9.40
2018,10,20,20,26,9.40
2018,10,20,20,27,9.40
2018,10,20,20,28,9.40
2018,10,20,20,29,9.40
2018,10,20,20,30,9.30
2018,10,20,20,31,9.30
2018,10,20,20,32,9.30
2018,10,20,20,33,9.30
2018,10,20,20,34,9.30
2018,10,20,20,35,9.20
2018,10,20,20,36,9.20
2018,10,20,20,37,9.20
2018,10,20,20,38,9.20
2018,10,20,20,39,9.20
2018,10,20,20,40,9.20
2018,10,20,20,41,9.20
2018,10,20,20,42,9.10
2018,10,20,20,43,9.10
2018,10,20,20,44,9.10
2018,10,20,20,45,9.10
2018,10,20,20,46,9.10
2018,10,20,20,47,9.10
2018,10,20,20,48,9.10
2018,10,20,20,49,9.10
2018,10,20,20,50,9.00
2018,10,20,20,51,9.00
2018,10,20,20,52,9.00
2018,10,20,20,53,9.00
2018,10,20,20,54,9.00
2018,10,20,20,55,9.00
2018,10,20,20,56,9.00
2018,10,20,20,57,9.00
2018,10,20,20,58,8.90
2018,10,20,20,59,8.90
2018,10,20,21,00,8.90
2018,10,20,21,01,8.90
2018,10,20,21,02,8.90
2018,10,20,21,03,8.90
2018,10,20,21,04,8.90
2018,10,20,21,05,8.90
2018,10,20,21,06,8.90
2018,10,20,21,07,8.90
2018,10,20,21,08,8.90
2018,10,20,21,09,8.90
2018,10,20,21,10,8.90
2018,10,20,21,11,8.80
2018,10,20,21,12,8.90
2018,10,20,21,13,8.90
2018,10,20,21,14,8.90
2018,10,20,21,15,8.90
2018,10,20,21,16,9.00
2018,10,20,21,17,9.00
2018,10,20,21,18,9.00
2018,10,20,21,19,9.10
2018,10,20,21,20,9.10
2018,10,20,21,21,9.10
2018,10,20,21,22,9.00
2018,10,20,21,23,9.00
2018,10,20,21,24,9.00
2018,10,20,21,25,9.00
2018,10,20,21,26,9.00
2018,10,20,21,27,8.90
2018,10,20,21,28,8.90
2018,10,20,21,29,8.90
2018,10,20,21,30,8.80
2018,10,20,21,31,8.80
2018,10,20,21,32,8.80
2018,10,20,21,33,8.80
2018,10,20,21,34,8.80
2018,10,20,21,35,8.80
2018,10,20,21,36,8.80
2018,10,20,21,37,8.80
2018,10,20,21,38,8.80
2018,10,20,21,39,8.80
2018,10,20,21,40,8.80
2018,10,20,21,41,8.70
2018,10,20,21,42,8.70
2018,10,20,21,43,8.70
2018,10,20,21,44,8.70
2018,10,20,21,45,8.60
2018,10,20,21,46,8.60
2018,10,20,21,47,8.60
2018,10,20,21,48,8.60
2018,10,20,21,49,8.60
2018,10,20,21,50,8.60
2018,10,20,21,51,8.60